www.pogodaiklimat.ru

Погода и климат >> Архив погоды >> Россия >> Кировская область >> Санчурск


ПОГОДА в Санчурске

  • Прогноз погоды в Санчурске
  • Монитор погоды в Санчурске

АРХИВ ПОГОДЫ в Санчурске

Время (UTC), дата Ветер
(напр.,м/с)
 
Видим.   Явления Облачность Т
(С)
Тd
(С)
f
(%)
Тe
(С)
Тes
(С)
Комфортность P
(гПа)
Po
(гПа)
Тmin
(С)
Tmax
(С)
R
(мм)
R24
(мм)
S
(см)
21 17.08 СВ 3-5
{5}
10 км слаб. ливневой дождь 10/10 300 м
[Cb cap]
+17.2 +16.4 95 +17 +17 1016.8 1004.6
00 18.08 СВ 2-4
{5}
20 км {ливн. осадки} 10/10 300 м
[Cb cap]
+17.1 +16.3 95 +17 +17 1016.6 1004.4
03 18.08 СВ 3-5
{7}
16 км слаб. ливневой дождь 10/10 300 м
[Cb cap]
+16.6 +15.9 96 +16 +16 1015.8 1003.6 +16.5 1
06 18.08 В 3-6
{7}
20 км {ливн. осадки} 10/8 300 м
[Cb cap Ac trans]
+18.8 +17.2 90 +20 +21 1015.9 1003.7
09 18.08 В 4-8
{8}
20 км 9/6 600 м
[Sc Ac trans Ci fib]
+22.2 +18.2 78 +27 +29 душно 1015.0 1003.0
12 18.08 В 2-3
{8}
20 км 10/8 600 м
[Sc Ac trans]
+23.8 +19.2 75 +29 +29 душно 1014.6 1002.7
15 18.08 В 2-3
{5}
20 км 10/5 600 м
[Sc Ac As Ci fib]
+23.6 +20.8 84 +29 +30 душно 1014.3 1002.5 +24.3
18 18.08 ЮВ 2-4
{5}
20 км 10/0
[Ci fib]
+20.8 +16.4 76 +25 +25 комфорт 1015.1 1003.0
21 18.08 ЮВ 1-2
{4}
20 км 10/0
[Ac trans Ci fib]
+19.2 +16.5 84 +22 +22 комфорт 1015.5 1003.4
00 19.08 ЮВ 1-2
{3}
20 км 10/10 600 м
[Sc]
+18.3 +16.6 90 +20 +20 1016.3 1004.1
03 19.08 Ю 1-1
{5}
20 км в посл. час гроза {ливн. осадки} 10/8 600 м
[Cb cap Ac As]
+17.9 +17.1 95 +19 +19 1017.0 1004.8 +16.6 1
06 19.08 ЮВ 3-5
{5}
20 км {гроза, ливн. осадки} 10/8 600 м
[Sc Ac As]
+19.2 +17.9 92 +21 +22 комфорт 1017.3 1005.2
09 19.08 ЮВ 3-5
{5}
20 км 10/0
[Ac As Cs]
+24.2 +18.2 69 +29 +35 душно 1016.7 1004.8
12 19.08 Ю 3-6
{8}
20 км 9/8 600 м
[Sc Ac trans]
+24.7 +18.1 67 +29 +30 душно 1015.9 1004.1
15 19.08 Ю 2-5
{7}
20 км 4/4 600 м
[Cb cap]
+23.3 +18.4 74 +29 +30 душно 1016.3 1004.4 +25.1 1
18 19.08 Ю 1-2
{5}
4000 м дымка ясно +19.2 +18.4 95 +22 +22 комфорт 1017.5 1005.4
21 19.08 ЮЗ 1-2
{2}
4000 м дымка 10/10 600 м
[Sc]
+17.6 +16.8 95 +19 +19 1017.9 1005.7
00 20.08 ЮЗ 1-2
{2}
4000 м дымка ясно +15.4 +14.7 96 +16 +16 1018.6 1006.4
03 20.08 ЮЗ 1-2
{2}
3200 м дымка 10/10 300 м
[St]
+14.2 +13.4 95 +14 +14 1019.5 1007.2 +13.3
06 20.08 С 1-3
{4}
6000 м в посл. час туман 10/10 300 м
[St]
+17.2 +16.4 95 +18 +18 1020.2 1008.0
09 20.08 СЗ 2-5
{5}
20 км 6/6 1000 м
[Cu med, cong]
+23.0 +15.1 61 +27 +31 душно 1020.5 1008.5
12 20.08 СЗ 2-4
{6}
20 км 4/4 1000 м
[Cu med, cong]
+25.0 +16.8 60 +29 +32 душно 1020.3 1008.4
15 20.08 С 1-2
{5}
20 км ясно +23.0 +17.0 69 +28 +28 душно 1020.6 1008.6 +25.4
18 20.08 штиль 0
{2}
20 км ясно +16.7 +15.1 90 +17 +17 1021.7 1009.4
21 20.08 штиль 0
{1}
20 км местами туман поземный ясно +14.2 +13.3 94 +14 +14 1022.3 1009.9
00 21.08 штиль 0
{1}
500 м туман ясно +12.9 +12.5 97 +12 +12 1022.3 1009.8
03 21.08 штиль 0
{1}
4000 м в посл. час туман ясно +13.8 +13.0 95 +13 +14 1023.0 1010.6 +12.1
06 21.08 ЮЗ 1-2
{2}
20 км {туман} ясно +21.6 +16.9 75 +26 +34 душно 1023.1 1011.1
09 21.08 З 1-3
{4}
20 км 8/4 1000 м
[Cu med, cong Ci fib]
+25.6 +16.9 59 +29 +36 душно 1022.2 1010.3
12 21.08 З 2-4
{5}
20 км 10/10 600 м
[Sc]
+26.2 +17.8 60 +31 +31 очень
душно
1022.0 1010.1
15 21.08 ЮЗ 1-1
{4}
20 км 9/4 600 м
[Sc Ci fib]
+25.3 +18.7 67 +30 +30 душно 1021.8 1009.9 +27.4
18 21.08 штиль 0
{2}
20 км 4/3 600 м
[Sc Ci fib]
+20.1 +18.5 91 +23 +23 комфорт 1022.3 1010.2
21 21.08 штиль 0
{2}
20 км местами туман поземный ясно +17.6 +16.6 94 +18 +18 1022.2 1010.0
00 22.08 СЗ 1-1
{1}
20 км местами туман поземный 1/1 600 м
[Sc]
+15.8 +15.1 96 +16 +16 1022.5 1010.2
03 22.08 штиль 0
{1}
500 м туман ясно +15.4 +15.1 98 +15 +16 1022.6 1010.3 +14.2
06 22.08 З 1-3
{3}
20 км {туман} 3/0
[Ci fib]
+22.0 +18.5 81 +27 +34 душно 1021.8 1009.8
09 22.08 ЮЗ 2-4
{4}
20 км 4/4 1000 м
[Cu med, cong]
+25.4 +17.0 60 +29 +36 душно 1020.8 1008.9
12 22.08 З 1-3
{6}
20 км 8/8 1000 м
[Cu med, cong]
+26.3 +17.6 59 +31 +32 душно 1019.9 1008.0
15 22.08 Ю 1-3
{5}
20 км ясно +25.4 +17.3 61 +29 +30 душно 1017.9 1006.1 +27.1
18 22.08 Ю 1-3
{4}
20 км гроза без осадков 6/6 600 м
[Cb cap]
+21.8 +18.1 80 +27 +27 душно 1017.6 1005.6
21 22.08 СЗ 3-8
{10}
20 км {гроза, ливн. осадки} 10/10 600 м
[Cb cap]
+17.6 +15.2 86 +18 +18 1019.8 1007.6
00 23.08 З 2-4
{8}
20 км {гроза, ливн. осадки} 10/8 600 м
[Sc Ac trans]
+15.2 +13.7 91 +15 +15 1021.4 1009.0
03 23.08 З 2-4
{5}
20 км 9/4 600 м
[Sc Ci fib]
+13.8 +12.3 91 +13 +13 1023.3 1010.9 +13.5 3
06 23.08 СЗ 2-4
{6}
20 км 1/1 600 м
[Sc]
+17.0 +12.3 74 +17 +23 1024.2 1011.9
09 23.08 СЗ 3-6
{8}
20 км 3/3 1000 м
[Cu hum]
+20.7 +11.1 54 +23 +29 комфорт 1024.5 1012.4
12 23.08 СЗ 3-6
{8}
20 км 3/3 1000 м
[Cu hum Ci fib]
+21.6 +10.7 50 +23 +27 комфорт 1024.4 1012.4
15 23.08 СЗ 1-3
{7}
20 км 1/0
[Ci fib]
+19.8 +11.4 58 +22 +23 комфорт 1024.5 1012.4 +22.1
18 23.08 штиль 0
{3}
20 км ясно +12.6 +11.1 91 +12 +12 1025.4 1012.9
21 23.08 Ю 1-1
{1}
20 км местами туман поземный 3/1 600 м
[Sc Ci fib]
+11.0 +10.0 94 +11 +11 1025.8 1013.2
00 24.08 Ю 1-1
{2}
20 км местами туман поземный 1/1 600 м
[Sc]
+9.4 +8.6 95 +9 +9 1025.9 1013.2
03 24.08 Ю 1-2
{2}
20 км местами туман поземный ясно +9.2 +8.4 95 +8 +9 1025.9 1013.2 +7.4
06 24.08 ЮЗ 2-3
{3}
20 км 9/0
[Ci fib]
+17.8 +13.4 75 +18 +24 1024.9 1012.6
09 24.08 З 2-4
{6}
20 км 8/5 1000 м
[Cu med, cong Ci fib]
+22.0 +10.7 49 +24 +28 комфорт 1023.3 1011.3
12 24.08 ЮЗ 2-5
{6}
20 км 10/3 600 м
[Cu med, cong Cs]
+21.0 +13.7 63 +24 +28 комфорт 1021.4 1009.3
15 24.08 Ю 2-3
{7}
20 км 10/0
[Ac trans Cs]
+19.6 +14.0 70 +22 +22 комфорт 1019.7 1007.6 +22.9

 

Местоположение метеостанции Санчурск (Кировская область, Россия): широта 56.98 долгота 47.32 высота над уровнем моря 104 м.

В архиве по умолчанию представлена погода в Санчурске за последнюю неделю. Архивные данные за месяц целиком и за предыдущие месяцы, начиная с января 2011 года, Вы можете получить, выбрав интересующий диапазон дат из раскрывающегося списка и нажав кнопку "Ввод!".


*Определитесь, кто Вы:
робот инопланетянин человек

Внимание! Время в таблицах - всемирное. Для получения местного времени необходимо прибавить поправку, которая равна 3 ч.

Смотрите также архив погоды в соседних городах и на ближайших метеорологических станциях:

Погода в Йошкар-Оле (Марий-Эл, Россия) (48 км)
Погода в Яранске (Кировская область, Россия) (56 км)
Погода в Козьмодемьянске (Марий-Эл, Россия) (85 км)
Погода в Новом Торьяле (Марий-Эл, Россия) (85 км)
Погода в Шахунье (Нижегородская область, Россия) (86 км)
Погода в Чебоксарах (Чувашия, Россия) (100 км)
Погода в Воскресенском (Нижегородская область, Россия) (116 км)
Погода в Морках (Марий-Эл, Россия) (120 км)
Погода в Красных Баках (Нижегородская область, Россия) (131 км)
Погода в Ветлуге (Нижегородская область, Россия) (134 км)

Пояснения к столбцам:

Ветер - указаны скорость ветра в м/с - средняя за 10 мин, порывы в срок и между сроками (в фигурных скобках) и направление, откуда дует ветер: С - северный, СВ - северо-восточный, В - восточный, ЮВ - юго-восточный, Ю - южный, ЮЗ - юго-западный, З - западный, СЗ - северо-западный.
Видимость - горизонтальная дальность видимости в метрах или километрах. При видимости от 1 до 10 км при отсутствии осадков обычно наблюдается дымка, при ухудшении видимости до 1 км и менее - туман. В сухую погоду видимость может ухудшаться дымом, пылью или мглою.
Явления - указаны атмосферные явления, наблюдавшиеся в срок или в последний час перед сроком; фигурными скобками обозначены явления, наблюдавшиеся между сроками (за 1-3 часа до срока); квадратными скобками обозначены град или гололедные отложения с указанием их диаметра в мм.
Облачность - указаны через наклонную черту общая и нижняя облачность в баллах и высота нижней границы облаков в метрах; квадратными скобками обозначены формы облаков: Ci - перистые, Cs - перисто-слоистые, Cc - перисто-кучевые, Ac - высококучевые, As - высокослоистые, Sc - слоисто-кучевые, Ns - слоисто-дождевые, Cu - кучевые, Cb - кучево-дождевые. Подробнее классификацию облаков см. в Атласе облаков (PDF).
T - Температура воздуха - температура, измеренная на высоте 2 м над землей.
Td - Температура точки росы - температура, при понижении до которой содержащийся в воздухе водяной пар достигнет насыщения.
f - Относительная влажность воздуха - влажноcть воздуха, измеренная на высоте 2 м над землей.
Te - Эффективная температура - температура, которую ощущает одетый по сезону человек в тени. Характеристика душности погоды. При расчете учитывается влияние влажности воздуха и скорости ветра на теплоощущения человека.
Tes - Эффективная температура на солнце - температура, которую ощущает человек, с поправкой на солнечный нагрев. Характеристика знойности погоды. Зависит от высоты солнца над горизонтом, облачности и скорости ветра. Ночью, в пасмурную погоду, а также при ветре 12 м/с и более поправка равна нулю.
P - Атмосферное давление - приведенное к уровню моря атмосферное давление.
Po - Атмосферное давление - измеренное на уровне метеостанции атмосферное давление.
Tmin - Минимальная температура - минимум температуры воздуха на высоте 2 м над землей.
Tmax - Максимальная температура - максимум температуры воздуха на высоте 2 м над землей.
R - Количество осадков - Количество выпавших осадков за период времени, мм. При наведении курсора мыши на число - период времени, за который выпало указанное количество осадков.
R24 - Количество осадков - Количество выпавших осадков за 24 часа, мм.
S - Снежный покров - Высота снежного покрова, см. При наведении курсора мыши на число - состояние снежного покрова и степень покрытия местности в баллах.